Flag for Germany Weather past 2 weeks in Dormagen, North Rhine-Westphalia, Germany

Now
77 °F

Passing clouds.


Feels Like: 79 °F
Forecast: 60 / 78 °F
Wind: 8 mph from Southwest

Location: Duesseldorf

Current Time: Jul 26, 2014 at 5:20:42 PM

Latest Report: Jul 26, 2014 at 4:50 PM


Visibility: N/A

Pressure: 29.92 "Hg

Humidity: 47%

Dew point: 55 °F

Location of DormagenLocation

Historic Weather in Dormagen — Graph

°F

Dormagen temperature yesterday

Maximum temperature yesterday: 72 °F (at 3:50 PM)
Minimum temperature yesterday: 63 °F (at 2:50 AM)
Average temperature yesterday: 66 °F

Past Weeks' High & Low Weather Summary

 TemperatureHumidityPressure
High93 °F (Jul 19, 3:50 PM)100% (Jul 16, 6:20 AM)30.18 "Hg (Jul 16, 6:20 AM)
Low55 °F (Jul 15, 1:50 AM)23% (Jul 19, 4:50 PM)29.74 "Hg (Jul 13, 3:50 PM)
Average71 °F71%29.97 "Hg
* Reported Jul 11 4:20 PM — Jul 26 4:20 PM, Dormagen, Weather by CustomWeather, © 2014

Note: Actual official high and low records may vary slightly from our data, if they occured in-between our weather recording intervals... More about our weather records

Advertising

Dormagen weather history for previous 24 hours

 ConditionsComfort  
Time TempWeatherWind HumidityBarometerVisibility
4:20 PM
Jul 26
77 °FPassing clouds.6 mph51%29.92 "HgN/A
3:50 PM75 °FPassing clouds.5 mph54%29.92 "HgN/A
3:20 PM75 °FPassing clouds.3 mph57%29.92 "Hg6 mi
2:50 PM73 °FPassing clouds.1 mph65%29.92 "Hg6 mi
2:20 PM72 °FPassing clouds.3 mph65%29.95 "Hg6 mi
1:50 PM72 °FPassing clouds.3 mph69%29.95 "Hg5 mi
1:20 PM70 °FBroken clouds.7 mph78%29.95 "Hg4 mi
12:50 PM68 °FPartly sunny.7 mph78%29.95 "Hg4 mi
12:20 PM68 °FPartly sunny.6 mph78%29.95 "Hg3 mi
11:50 AM66 °FFog.5 mph83%29.95 "Hg3 mi
11:20 AM66 °FFog.8 mph83%29.95 "Hg3 mi
10:50 AM66 °FFog.5 mph83%29.95 "Hg3 mi
10:20 AM66 °FFog.6 mph88%29.95 "Hg2 mi
9:50 AM64 °FFog.5 mph94%29.95 "Hg1 mi
9:20 AM63 °FFog.5 mph100%29.95 "Hg1 mi
8:50 AM63 °FFog.3 mph100%29.92 "Hg1 mi
8:20 AM63 °FFog.1 mph94%29.92 "Hg0 mi
7:50 AM61 °FFog.3 mph100%29.92 "Hg0 mi
7:20 AM61 °FFog.3 mph100%29.92 "Hg0 mi
6:50 AM59 °FFog.5 mph100%29.92 "Hg1 mi
6:20 AM57 °FFog.5 mph94%29.92 "Hg0 mi
5:50 AM57 °FCool.2 mph94%29.92 "Hg1 mi
5:20 AM59 °FFog.1 mph94%29.92 "Hg1 mi
4:50 AM59 °FFog.2 mph94%29.89 "Hg2 mi
4:20 AM59 °FFog.1 mph94%29.92 "Hg2 mi
3:50 AM61 °FFog.2 mph94%29.92 "Hg2 mi
3:20 AM61 °FFog.2 mph94%29.92 "Hg3 mi
2:50 AM61 °FClear.3 mph94%29.92 "Hg4 mi
2:20 AM63 °FClear.3 mph88%29.92 "Hg5 mi
1:50 AM63 °FClear.2 mph88%29.92 "Hg10 mi
1:20 AM63 °FClear.2 mph88%29.92 "Hg10 mi
12:50 AM63 °FClear.3 mph88%29.92 "Hg10 mi
12:20 AM63 °FClear.5 mph88%29.92 "Hg10 mi
11:50 PM
Jul 25
63 °FClear.5 mph88%29.92 "Hg10 mi
11:20 PM64 °FClear.5 mph83%29.92 "Hg10 mi
10:50 PM64 °FClear.6 mph83%29.92 "Hg10 mi
10:20 PM66 °FSunny.5 mph78%29.92 "Hg10 mi
9:50 PM66 °FSunny.6 mph78%29.92 "Hg10 mi
9:20 PM68 °FPassing clouds.7 mph78%29.92 "HgN/A
8:50 PM68 °FScattered clouds.7 mph78%29.92 "HgN/A
8:20 PM70 °FScattered clouds.7 mph73%29.89 "HgN/A
7:50 PM70 °FPassing clouds.7 mph69%29.92 "HgN/A
7:20 PM70 °FPassing clouds.9 mph69%29.92 "HgN/A
6:50 PM70 °FPartly sunny.8 mph73%29.92 "HgN/A
6:20 PM72 °FScattered clouds.8 mph69%29.92 "HgN/A
5:50 PM72 °FPassing clouds.9 mph65%29.92 "HgN/A
5:20 PM72 °FPassing clouds.9 mph65%29.92 "HgN/A
Weather by CustomWeather, © 2014

See weather overviewHow to use our weather pages